Regional Weather Roundup
Issued by NWS

Home | Current Version | Previous Version | Text Only | Print | Product List | Glossary On
Versions: 1 2 3 4 5 6 7 8 9 10 11 12 13 14 15 16 17 18 19 20 21 22 23 24 25 26 27
000
ASUS46 KPQR 202310
RWROR

OREGON REGIONAL WEATHER ROUNDUP
NATIONAL WEATHER SERVICE PORTLAND OR
400 PM PDT FRI OCT 20 2017

NOTE: "FAIR" INDICATES FEW OR NO CLOUDS BELOW 12,000 FEET WITH
NO SIGNIFICANT WEATHER AND/OR OBSTRUCTIONS TO VISIBILITY.

ORZ001>013-210000-
NORTHWEST OREGON


CITY           SKY/WX    TMP DP  RH WIND       PRES   REMARKS
ASTORIA        MOSUNNY   51  46  83 SW7       29.90R
NEWPORT        RAIN      52  46  82 SW9       30.01R
PORTLAND       RAIN      48  44  86 SW15      29.95R
VANCOUVER WA   LGT RAIN  49  45  86 W6        29.93R
SCAPPOOSE      PTSUNNY   54  44  69 SW7       29.92R
HILLSBORO      PTSUNNY   52  46  80 CALM      29.93R
AURORA         PTSUNNY   55  45  68 S12       29.96R
MCMINNVILLE    MOSUNNY   55  44  66 SW16      29.96R
SALEM          MOSUNNY   53  43  68 S8        29.97R
CORVALLIS      MOSUNNY   55  46  71 W6        29.99R
EUGENE         PTSUNNY   54  46  74 S15       30.00R
$$

ORZ021-028-210000-
SOUTHWEST OREGON


CITY           SKY/WX    TMP DP  RH WIND       PRES   REMARKS
NORTH BEND     LGT RAIN  52  46  80 S10       30.06R
BROOKINGS      CLOUDY    53  50  89 VRB5      30.11R
ROSEBURG       LGT RAIN  48  44  86 E8        30.05S FOG
SEXTON SUMMIT  FOG       38  37  97 SW8       30.02R VSB 1/4 WCI  32
GRANTS PASS    PTSUNNY   54  39  58 SW7       30.10R
MEDFORD        CLOUDY    53  38  56 SW12      30.05R
$$

ORZ014>016-041-210000-
COLUMBIA GORGE


CITY           SKY/WX    TMP DP  RH WIND       PRES   REMARKS
TROUTDALE      HVY RAIN  50  41  71 W16       29.95R VSB 1
HOOD RIVER     LGT RAIN  52  37  58 W3        29.89R
THE DALLES     MOSUNNY   57  36  45 W23G31    29.87R
$$

ORZ029>031-041-044-049-050-061>064-502-503-505>511-210000-
EASTERN OREGON


CITY           SKY/WX    TMP DP  RH WIND       PRES   REMARKS
MADRAS         MOSUNNY   48  46  93 W22G31    29.92R
REDMOND        LGT RAIN  48  24  39 W17G24    29.91R
BEND           MOSUNNY   46  30  53 SW21      29.92R
PRINEVILLE     MOSUNNY   45  28  53 W20G28    29.92R
KLAMATH FALLS  PTSUNNY   43  33  68 W9        30.01R
LAKEVIEW       PTSUNNY   37  36  93 S7        30.00R WCI  32
HERMISTON      PTSUNNY   59  39  47 W23G30    29.79R
PENDLETON      MOSUNNY   56  33  42 W21       29.79R
JOHN DAY       PTSUNNY   42  35  75 SW8       29.88R
MEACHAM        PTSUNNY   44  33  65 CALM      29.81R
LA GRANDE      MOSUNNY   52  32  46 W10G17    29.82R
BAKER CITY     PTSUNNY   50  28  42 NW5       29.82R
BURNS          MOSUNNY   45  31  58 SW17G25   29.90R
ROME             N/A     49  28  44 SW23      29.90R
ONTARIO        CLOUDY    58  27  30 W13       29.85R
$$




USA.gov is the U.S. government's official web portal to all federal, state and local government web resources and services.